Retour au catalogue

CZ-3B R/B

ActifHEO
NORAD 62486·ROCKET BODY·🇨🇳 China

Lancé Jan 6, 2025 depuis Xichang Satellite Launch Center

Loading…

Prochains Passages (prochaines 24 heures)

TLE

FraisSource: Space-Track

Époque: Sep 14, 2026, 11:16 UTC

1 62486U 25002B   26257.46997255  .00443411  23159-7  96785-3 0  9996
2 62486  28.4701 319.8245 4671852 182.3894 174.2439  6.40037314 16533

Suivez CZ-3B R/B en temps réel avec AllMySat

Download on the App Store